Content
SEND FEEDBACK

Daily
Averages
Monthly
Summary
United States of America

SIOUX CENTER, IOWA


Home > North America > United States > Iowa
Elevation: 1347 feet     Latitude: 43 02N     Longitude: 096 09W

WEATHER
 
SELECT A DAY
Number of Records: 413,016;   Date Range: 4/23/95 - 7/29/14
 
SHARE

PRINT THIS DATA

[ ← Previous Day ]
WEATHER ALMANAC - JANUARY 31, 2013
[ Next Day → ]
[ °C ]   °F
Weather ElementAverageHighLow
Temperature1.5 °F6.8 °F (12:35 am)-2.2 °F (8:35 pm)
Dewpoint-9.5 °F-2.2 °F (12:35 am)-13 °F (10:15 pm)
Humidity60.5 %72 % (1:15 am)51 % (12:15 pm)
Barometer30.18 in30.37 in (9:15 pm)29.91 in (12:35 am)
Wind Speed16.7 mph26.5 mph (11:15 am)
Wind Gust34.5 mph (9:55 am)
Weather ElementAverage
Visibility9.5 mi
Wind DirectionNW (316.8 °)

Weather ElementTotal
Precipitation---
Heating Degree Days62.7 (Base 65)
Averaged from 71 records on January 31, 2013
WEATHER CONDITIONS BREAKOUT
WIND DIRECTION BREAKOUT
WEATHER BY HOUR - JANUARY 31, 2013
[ °C ]   °F
Local TimeTemperatureDewpointHumidityBarometerVisibilityWind DirectionWind SpeedGust SpeedPrecipitationEventsConditions
12:35 AM6.8 °F-2.2 °F67 %29.91 in10.0 miNW (320°)10.4 mphClear
12:55 AM6.8 °F-2.2 °F67 %29.92 in10.0 miNW (310°)10.4 mphClear
1:15 AM5.0 °F-2.2 °F72 %29.92 in10.0 miNW (310°)10.4 mph18.4 mphClear
1:35 AM5.0 °F-5.8 °F61 %29.93 in10.0 miNW (320°)17.3 mph24.2 mphClear
1:55 AM5.0 °F-5.8 °F61 %29.94 in10.0 miNW (320°)13.8 mph21.9 mphClear
2:15 AM3.2 °F-7.6 °F61 %29.95 in10.0 miNW (310°)17.3 mph23.0 mphClear
2:35 AM3.2 °F-7.6 °F61 %29.95 in10.0 miNW (310°)17.3 mph23.0 mphClear
2:55 AM3.2 °F-7.6 °F61 %29.96 in10.0 miNW (320°)12.7 mph20.7 mphClear
3:15 AM3.2 °F-7.6 °F61 %29.95 in10.0 miNW (320°)15.0 mph19.6 mphClear
3:35 AM3.2 °F-7.6 °F61 %29.96 in10.0 miNW (320°)13.8 mph20.7 mphClear
3:55 AM3.2 °F-7.6 °F61 %29.96 in10.0 miNW (320°)16.1 mphScattered Clouds
4:15 AM3.2 °F-7.6 °F61 %29.98 in10.0 miNW (320°)16.1 mph20.7 mphOvercast
4:35 AM3.2 °F-7.6 °F61 %29.98 in10.0 miNW (320°)13.8 mph23.0 mphOvercast
4:55 AM3.2 °F-7.6 °F61 %30.00 in10.0 miNNW (330°)15.0 mph21.9 mphOvercast
5:15 AM3.2 °F-7.6 °F61 %30.01 in10.0 miNNW (330°)16.1 mphOvercast
5:35 AM1.4 °F-7.6 °F66 %30.00 in10.0 miNW (320°)17.3 mph21.9 mphOvercast
5:55 AM1.4 °F-7.6 °F66 %30.01 in10.0 miNNW (330°)16.1 mph27.6 mphOvercast
6:15 AM1.4 °F-7.6 °F66 %30.02 in10.0 miNW (320°)18.4 mph27.6 mphOvercast
6:35 AM1.4 °F-9.4 °F61 %30.03 in10.0 miNNW (330°)19.6 mph25.3 mphOvercast
6:55 AM-0.4 °F-9.4 °F66 %30.05 in7.0 miNNW (330°)21.9 mph31.1 mphOvercast
7:15 AM-0.4 °F-9.4 °F66 %30.06 in10.0 miNW (320°)19.6 mph26.5 mphMostly Cloudy
7:35 AM-0.4 °F-9.4 °F66 %30.07 in7.0 miNW (320°)18.4 mph24.2 mphScattered Clouds
7:55 AM-0.4 °F-9.4 °F66 %30.08 in10.0 miNNW (330°)17.3 mph25.3 mphMostly Cloudy
8:15 AM-0.4 °F-9.4 °F66 %30.09 in10.0 miNW (320°)17.3 mph29.9 mphScattered Clouds
8:35 AM-0.4 °F-9.4 °F66 %30.10 in10.0 miNW (320°)18.4 mph28.8 mphClear
8:55 AM-0.4 °F-9.4 °F66 %30.12 in10.0 miNW (320°)21.9 mph28.8 mphScattered Clouds
9:15 AM-0.4 °F-9.4 °F66 %30.13 in5.0 miNW (320°)24.2 mph31.1 mphHaze
9:35 AM-0.4 °F-9.4 °F66 %30.15 in4.0 miNNW (330°)20.7 mph31.1 mphHaze
9:55 AM-0.4 °F-11.2 °F60 %30.17 in7.0 miNW (320°)21.9 mph34.5 mphScattered Clouds
10:15 AM1.4 °F-11.2 °F56 %30.18 in7.0 miNW (320°)24.2 mph31.1 mphScattered Clouds
10:35 AM1.4 °F-9.4 °F61 %30.20 in7.0 miNW (320°)20.7 mph26.5 mphMostly Cloudy
10:55 AM1.4 °F-9.4 °F61 %30.21 in10.0 miNW (310°)21.9 mph26.5 mphScattered Clouds
11:15 AM1.4 °F-11.2 °F56 %30.21 in10.0 miNW (320°)26.5 mph32.2 mphScattered Clouds
11:35 AM1.4 °F-11.2 °F56 %30.23 in10.0 miNW (310°)17.3 mph26.5 mphScattered Clouds
11:55 AM1.4 °F-9.4 °F61 %30.23 in4.0 miNW (320°)20.7 mph31.1 mphHaze
12:15 PM3.2 °F-11.2 °F51 %30.24 in7.0 miNNW (330°)21.9 mph29.9 mphMostly Cloudy
12:35 PM3.2 °F-9.4 °F56 %30.24 in10.0 miNW (310°)21.9 mph31.1 mphMostly Cloudy
12:55 PM3.2 °F-9.4 °F56 %30.25 in7.0 miNW (310°)20.7 mph31.1 mphMostly Cloudy
1:15 PM3.2 °F-9.4 °F56 %30.25 in10.0 miNW (310°)21.9 mph31.1 mphMostly Cloudy
1:35 PM3.2 °F-9.4 °F56 %30.25 in10.0 miNW (320°)17.3 mph29.9 mphOvercast
1:55 PM5.0 °F-9.4 °F52 %30.25 in10.0 miNW (310°)23.0 mph27.6 mphOvercast
2:15 PM5.0 °F-9.4 °F52 %30.26 in10.0 miNW (310°)23.0 mph32.2 mphMostly Cloudy
2:35 PM5.0 °F-9.4 °F52 %30.26 in10.0 miNW (320°)18.4 mph31.1 mphScattered Clouds
2:55 PM5.0 °F-9.4 °F52 %30.27 in10.0 miNW (320°)19.6 mph28.8 mphClear
3:15 PM5.0 °F-9.4 °F52 %30.28 in10.0 miNW (320°)23.0 mph29.9 mphClear
3:35 PM5.0 °F-9.4 °F52 %30.27 in10.0 miNNW (330°)19.6 mph32.2 mphClear
3:55 PM3.2 °F-9.4 °F56 %30.29 in10.0 miNNW (330°)19.6 mph27.6 mphClear
4:15 PM3.2 °F-11.2 °F51 %30.29 in10.0 miNW (320°)20.7 mph27.6 mphClear
4:35 PM3.2 °F-11.2 °F51 %30.30 in10.0 miNW (310°)20.7 mph28.8 mphClear
4:55 PM3.2 °F-11.2 °F51 %30.30 in10.0 miNW (320°)19.6 mph27.6 mphClear
5:15 PM1.4 °F-11.2 °F56 %30.30 in10.0 miNW (310°)17.3 mph24.2 mphClear
5:35 PM1.4 °F-11.2 °F56 %30.31 in10.0 miNW (310°)17.3 mph23.0 mphClear
5:55 PM-0.4 °F-11.2 °F60 %30.32 in10.0 miNW (320°)16.1 mph23.0 mphClear
6:15 PM-0.4 °F-11.2 °F60 %30.32 in10.0 miNW (310°)16.1 mph23.0 mphClear
6:35 PM-0.4 °F-11.2 °F60 %30.33 in10.0 miNW (310°)15.0 mph20.7 mphClear
6:55 PM-0.4 °F-11.2 °F60 %30.33 in10.0 miNW (310°)12.7 mph21.9 mphClear
7:15 PM-0.4 °F-11.2 °F60 %30.34 in10.0 miNW (320°)17.3 mph20.7 mphClear
7:35 PM-0.4 °F-11.2 °F60 %30.34 in10.0 miNW (320°)13.8 mph20.7 mphClear
7:55 PM-0.4 °F-11.2 °F60 %30.35 in10.0 miNW (320°)13.8 mphClear
8:15 PM-0.4 °F-11.2 °F60 %30.35 in10.0 miNW (310°)15.0 mph21.9 mphClear
8:35 PM-2.2 °F-11.2 °F66 %30.36 in10.0 miNW (320°)12.7 mphClear
8:55 PM-2.2 °F-11.2 °F66 %30.36 in10.0 miWNW (300°)10.4 mph18.4 mphClear
9:15 PM-2.2 °F-11.2 °F66 %30.37 in10.0 miNW (310°)13.8 mph23.0 mphClear
9:35 PM-2.2 °F-11.2 °F66 %30.37 in10.0 miNW (310°)13.8 mphClear
9:55 PM-2.2 °F-11.2 °F66 %30.37 in10.0 miNW (310°)10.4 mph17.3 mphClear
10:15 PM-2.2 °F-13.0 °F60 %30.37 in10.0 miNW (320°)9.2 mphClear
10:35 PM-2.2 °F-13.0 °F60 %30.37 in10.0 miWNW (300°)6.9 mphClear
10:55 PM-2.2 °F-13.0 °F60 %30.37 in10.0 miWNW (300°)5.8 mphClear
11:15 PM-2.2 °F-11.2 °F66 %30.37 in10.0 miWNW (300°)6.9 mphClear
11:35 PM-2.2 °F-11.2 °F66 %30.37 in10.0 miWNW (300°)4.6 mphClear
11:55 PM-2.2 °F-11.2 °F66 %30.36 in10.0 miWNW (300°)3.5 mphClear
Hourly data recorded from KLRJ, located miles away from Sioux Center, Iowa







STORIES FROM OUR PARTNERS